Zurück zum Katalog

GALILEO 22

2C8

AktivNavigationMEO
NORAD 43058·PAYLOAD·🇪🇺 EU

Gestartet Dec 12, 2017 von Guiana Space Centre

Loading…

Nächste Überflüge (nächste 24 Stunden)

TLE

AktuellSource: CelesTrak SupGP

Epoche: Sep 14, 2026, 23:59 UTC

1 43058C 17079D   26257.99979167  .00000000  00000+0  00000+0 0  2578
2 43058  55.0517 219.0318 0005003 286.1594 130.1480  1.70474123    19

Verfolge GALILEO 22 in Echtzeit mit AllMySat

Download on the App Store